EST,Max TemperatureF,Mean TemperatureF,Min TemperatureF,Max Dew PointF,MeanDew PointF,Min DewpointF,Max Humidity, Mean Humidity, Min Humidity, Max Sea Level PressureIn, Mean Sea Level PressureIn, Min Sea Level PressureIn, Max VisibilityMiles, Mean VisibilityMiles, Min VisibilityMiles, Max Wind SpeedMPH, Mean Wind SpeedMPH, Max Gust SpeedMPH,PrecipitationIn, CloudCover, Events, WindDirDegrees
2011-12-1,44,35,25,29,25,20,81,65,49,30.32,30.27,30.18,10,10,10,16,7,18,0.00,2,,203
2011-12-2,43,38,32,34,30,26,89,71,53,30.48,30.39,30.26,10,10,6,16,7,20,0.02,4,Rain,340
2011-12-3,52,42,32,37,34,29,85,73,61,30.43,30.27,30.03,10,9,6,23,12,30,0.01,5,Rain,159
2011-12-4,52,46,39,48,42,34,89,86,82,30.25,30.06,29.96,10,8,2,32,13,45,0.33,8,Rain,233
2011-12-5,42,39,35,36,32,9,85,51,16,30.28,30.24,30.20,10,10,8,16,7,21,0.00,8,,7
2011-12-6,35,30,25,26,21,19,75,68,61,30.30,30.23,30.16,10,10,9,20,9,23,T,7,,12
2011-12-7,38,32,25,27,20,7,85,56,27,30.15,30.06,29.99,10,10,10,18,7,21,0.00,5,,252
2011-12-8,35,29,23,25,22,19,88,75,61,30.24,30.19,30.12,10,10,7,13,8,16,0.00,7,,220
2011-12-9,32,25,18,27,22,10,92,73,53,30.43,30.25,30.17,10,5,1,15,10,21,0.17,7,Snow,250
2011-12-10,23,17,11,9,6,3,76,61,45,30.57,30.50,30.44,10,10,10,15,9,17,0.00,0,,209
2011-12-11,37,28,19,24,17,9,74,64,54,30.53,30.47,30.41,10,10,10,20,10,24,0.00,1,,188
2011-12-12,43,33,22,25,21,16,74,59,43,30.48,30.44,30.38,10,10,10,12,4,14,0.00,1,,179
2011-12-13,42,37,31,37,32,24,92,78,64,30.45,30.39,30.30,10,7,1,10,4,14,0.01,8,,170
2011-12-14,55,47,38,52,44,37,96,91,86,30.30,30.04,29.76,10,4,2,23,12,30,1.30,8,Rain,169
2011-12-15,57,46,35,54,40,23,93,76,59,30.19,29.84,29.67,10,9,2,31,18,38,0.09,8,Rain,254
2011-12-16,36,33,30,25,22,21,72,66,59,30.39,30.32,30.21,10,10,10,20,8,24,0.00,8,,285
2011-12-17,32,30,28,27,25,23,92,81,69,30.34,30.27,30.18,10,5,1,15,8,17,0.07,8,Snow,218
2011-12-18,41,34,27,32,27,24,92,74,55,30.25,30.16,29.99,10,8,4,17,9,26,0.00,3,,206
2011-12-19,53,45,37,38,34,23,76,68,59,30.19,30.02,29.91,10,10,7,20,14,26,0.00,7,,287
2011-12-20,37,36,34,36,28,21,92,73,54,30.20,30.05,29.81,10,8,2,18,7,23,0.01,8,Rain,83
2011-12-21,43,40,37,41,39,35,100,93,85,29.98,29.75,29.65,10,3,0,15,7,20,0.01,8,Fog-Rain,237
2011-12-22,41,38,34,36,33,27,89,81,73,30.20,30.09,29.97,10,8,2,18,6,24,0.03,8,Rain-Snow,295
2011-12-23,37,33,29,26,22,18,85,69,52,30.37,30.28,30.20,10,9,2,18,8,24,T,7,Snow,234
2011-12-24,37,30,23,27,23,20,88,71,54,30.38,30.30,30.21,10,10,7,22,10,26,0.00,2,,201
2011-12-25,42,37,32,29,27,25,75,65,54,30.31,30.16,30.07,10,10,10,24,14,30,0.00,5,,266
2011-12-26,46,36,26,29,26,21,81,63,45,30.34,30.20,29.96,10,10,10,20,9,25,0.00,2,,200
2011-12-27,39,35,31,34,30,22,96,83,70,29.92,29.67,29.50,10,5,0,32,12,39,0.27,8,Fog-Rain-Snow,268
2011-12-28,32,29,26,22,19,17,75,67,58,30.08,30.02,29.93,10,10,10,23,9,31,0.00,7,,276
2011-12-29,46,38,29,35,30,23,85,73,60,29.90,29.68,29.53,10,10,9,24,10,32,T,5,Rain,200
2011-12-30,46,39,31,45,39,28,100,91,82,29.75,29.59,29.46,10,5,1,15,7,18,0.36,7,Rain,154
2011-12-31,40,38,36,37,33,28,100,85,70,30.04,29.91,29.69,10,9,3,25,11,32,0.00,7,,201